map of ORN home
Great Circle Mapper logo
ORN - Airport
Location
City:  Oran, Algeria
Name:Es SÚnia
ICAO / IATA:DAOO / ORN

Details
Type:Airport (Aerodrome, Airfield)
Latitude:35░37'38"N (35.627222)
Longitude:0░36'41"W (-0.611388)
Elevation:299 ft (91 m)
Variation:0.14░W (WMM2015 magnetic declination)
0.11░ annual change
Runways:2
Longest:10039 × 148 ft (3060 × 45 m)

Time
Time Zone:UTC+1
Local Time:

Weather
METAR:DAOO 010000Z 24008KT 9999 SCT020 SCT100 12/10 Q1025
TAF:DAOO 280500Z 2806/0106 24010KT 9999 SCT010 SCT026
TEMPO 2806/2810 8000 DZ
BECMG 2812/2814 28010KT FEW020 SCT026
BECMG 2820/2823 24012KT
BECMG 0100/0103 FEW020

Related Locations
Nearby:
Farthest:NZOP: 12232 mi / 19686 km
Opotiki, NZ

Find:

   beyond  
but within

Other Information
Maps:
NOTAMs:
Links:
Sources:

  
flag of Algeria   

Sectional Chart

Flight Planning
at skyvector.com

Satellite Image

Google Maps Satellite View

 

Copyright © 2004-2015 Karl L. Swartz. All rights reserved.
The Great Circle Mapper name and logo are trademarks of the Great Circle Mapper.
All other trademarks mentioned herein belong to their respective owners.
Please see credits for attibutions and further copyright information.

  Follow gcmap on Facebook Follow gcmap on Twitter Follow gcmap on Google+

hCard Microformat

Geo Microformat